Flag for Germany Weather past 2 weeks in Wismar, Mecklenburg-Western Pomerania, Germany

Now
60 °F

Overcast.


Feels Like: 60 °F
Forecast: 61 / 78 °F
Wind: 1 mph from East

Location: Schwerin

Current Time: Aug 30, 2015 at 8:27:08 AM

Latest Report: Aug 30, 2015 at 8:00 AM


Visibility: 15 mi

Pressure: 30.14 "Hg

Humidity: 82%

Dew point: 55 °F

Location of WismarLocation

Historic Weather in Wismar — Graph

°F

Wismar temperature yesterday

Maximum temperature yesterday: 72 °F (at 4:00 PM)
Minimum temperature yesterday: 52 °F (at 6:00 AM)
Average temperature yesterday: 62 °F

Past Weeks' High & Low Weather Summary

 TemperatureHumidityPressure
High76 °F (Aug 17, 4:00 PM)100% (Aug 16, 6:00 AM)30.26 "Hg (Aug 16, 6:00 AM)
Low52 °F (Aug 29, 6:00 AM)43% (Aug 29, 4:00 PM)29.69 "Hg (Aug 15, 8:00 AM)
Average65 °F80%29.94 "Hg
* Reported Aug 15 7:00 AM — Aug 30 7:00 AM, Wismar, Weather by CustomWeather, © 2015

Note: Actual official high and low records may vary slightly from our data, if they occured in-between our weather recording intervals... More about our weather records

Advertising

Wismar weather history for previous 24 hours

 ConditionsComfort  
Time TempWeatherWind HumidityBarometerVisibility
7:00 AM
Sun, Aug 30
58 °FOvercast.2 mph86%30.14 "Hg13 mi
4:00 AM57 °FPassing clouds.2 mph89%30.15 "Hg11 mi
3:00 AM57 °FPassing clouds.2 mph87%30.16 "Hg14 mi
2:00 AM57 °FPassing clouds.1 mph87%30.17 "Hg14 mi
1:00 AM59 °FPassing clouds.2 mph84%30.18 "Hg14 mi
12:00 AM59 °FPassing clouds.2 mph87%30.18 "Hg10 mi
10:00 PM
Sat, Aug 29
62 °FPassing clouds.1 mph75%30.20 "Hg11 mi
9:00 PM64 °FOvercast.2 mph64%30.19 "Hg19 mi
8:00 PM68 °FScattered clouds.2 mph54%30.18 "Hg28 mi
7:00 PM71 °FScattered clouds.1 mph49%30.19 "Hg28 mi
6:00 PM72 °FPartly sunny.2 mph47%30.20 "Hg28 mi
5:00 PM69 °FScattered clouds.2 mph50%30.22 "Hg28 mi
4:00 PM72 °FOvercast.1 mph43%30.22 "Hg28 mi
3:00 PM71 °FOvercast.3 mph48%30.23 "Hg25 mi
2:00 PM70 °FPartly sunny.2 mph46%30.24 "Hg34 mi
1:00 PM69 °FScattered clouds.3 mph48%30.25 "Hg25 mi
12:00 PM68 °FOvercast.5 mph59%30.26 "Hg22 mi
10:00 AM62 °FOvercast.3 mph79%30.26 "Hg11 mi
9:00 AM58 °FOvercast.2 mph89%30.25 "Hg6 mi
8:00 AM53 °FFog.3 mph99%30.24 "Hg4 mi
Weather by CustomWeather, © 2015

See weather overviewHow to use our weather pages